CZ-3C DEB, 40204

Orbit data source: Space-Track

CZ-3C DEB, 40204 is space debris in HEO originally from a launch on Fri, 24 Feb 2012 UTC launched from the Xichang Space Center, China (XSC). Debris objects in space refer to the collection of defunct objects orbiting the Earth. Examples of debris include non-operational satellites, rocket bodies, and fragments generated from explosions, collisions, or faulty payload assembly.

Loading next visibility...
Identifier
40204, 2012-008P
Orbit
HEO
Country
Flag of CNCN / PRC
Related business
Manufacturer
CALT
Mission
Spacecraft
Bus & Motor
Unknown
Mass
Unknown
Launch date (UTC)
2012-02-24 (14 years ago)
Launch vehicle
Unknown
Launch site
Xichang Space Center, China (XSC)
Object type
Payload
Rocket body
Debris
Shape & HBR
Unknown shape, 0.1 m
Radar Cross Section
Medium (>0.1 m² and <1 m²)

Expand to show TLE details & history
Last TLE update: 20 hours ago

TLE from 20 hours ago
0 CZ-3C DEB
1 40204U 12008P   25339.53336235 -.00000135  00000-0 -33494-2 0  9999
2 40204  20.3450  80.8831 7081439 102.0497 338.6665  2.27022061 92313
Epoch: 2025-12-05T12:48Z
TLE epoch observation values (Epoch: 2025-12-05T12:48:02.507Z)
Latitude
0.00003°
Longitude
174.14522°
Altitude
7,992.942 km
Speed
6.259 km/s
True Right ascension
05h 22m 55s
True Declination
0° 00' 00"
Sunlit
Object was in full shadow at epoch
Visualization orbit readout
Latitude
Unknown
Longitude
Unknown
Altitude
Unknown
Speed
Unknown
Apparent Right ascension
Unknown
Apparent Declination
Unknown
Sunlit
N/A
Visualization observer readout
Local Sidereal Time
06:49:23
Azimuth
Unknown
Elevation
Unknown
Doppler factor
Unknown
Orbital elements
Apogee altitude
35,400.626 km
Perigee altitude
760.247 km
Semi-major axis
24,458.574 km
Eccentricity
0.70814
Inclination
20.345°
RAAN
80.8831°
Arg. of periapsis
102.0497°
True anomaly
257.77516°
Mean anomaly
338.6665°
Eccentric anomaly
305.72949°
Mean motion
0.56741 °/min
Orbital period
634.46 mins
BSTAR
-0.0033494
Loading maneuver chart data...
Computing Atmospheric mass density...
Loading historical data...
Loading historical data...
Loading historical data...
Loading historical data...
Loading historical data...
Loading historical data...
Loading historical data...

Documentation

Showing up to 5 results
|